Home   Weather   Gaggenau   Past weeks

Flag for Germany Past Weather in Gaggenau, Baden-Württemberg, Germany — Yesterday and Last 2 Weeks

Now
45 °F

Clear.


Feels Like: 41 °F
Forecast: 36 / 65 °F
Wind: 7 mph from Southwest

Location: Karlsruhe - Baden Wurttemberg

Current Time: Apr 29, 2017 at 2:15:48 am

Latest Report: Apr 28, 2017 at 11:20 pm


Visibility: 10 mi

Pressure: 30.04 "Hg

Humidity: 71%

Dew Point: 36 °F

Location of GaggenauLocation

Past Weather in Gaggenau — Graph

°F

Gaggenau Temperature Yesterday

Maximum temperature yesterday: 55 °F (at 3:50 pm)
Minimum temperature yesterday: 36 °F (at 7:20 am)
Average temperature yesterday: 47 °F

High & Low Weather Summary for the Past Weeks

 TemperatureHumidityPressure
High64 °F (Apr 24, 4:20 pm)100% (Apr 16, 5:50 am)30.60 "Hg (Apr 16, 5:50 am)
Low27 °F (Apr 20, 5:50 am)25% (Apr 21, 3:20 pm)29.74 "Hg (Apr 25, 4:50 am)
Average47 °F68%30.13 "Hg
* Reported Apr 13 11:20 pm — Apr 28 11:20 pm, Gaggenau, Weather by CustomWeather, © 2017

Note: Actual official high and low records may vary slightly from our data, if they occured in-between our weather recording intervals... More about our weather records

Advertising

Gaggenau Weather History for the Previous 24 Hours

Scroll right to see more
 ConditionsComfort  
Time TempWeatherWind HumidityBarometerVisibility
11:20 pm
Fri, Apr 28
45 °FClear.7 mph71%30.04 "Hg10 mi
10:50 pm45 °FClear.6 mph71%30.04 "Hg10 mi
10:20 pm46 °FClear.6 mph66%30.04 "Hg10 mi
9:50 pm45 °FClear.7 mph71%30.04 "Hg10 mi
9:20 pm46 °FClear.5 mph66%30.04 "Hg10 mi
8:50 pm46 °FClear.6 mph62%30.01 "Hg10 mi
8:20 pm50 °FPassing clouds.5 mph54%30.01 "HgN/A
7:50 pm52 °FSunny.6 mph50%30.01 "Hg10 mi
7:20 pm52 °FPassing clouds.6 mph47%30.01 "HgN/A
6:50 pm54 °FPassing clouds.8 mph44%29.98 "HgN/A
6:20 pm54 °FPassing clouds.9 mph41%29.98 "HgN/A
5:50 pm54 °FPassing clouds.7 mph41%29.98 "HgN/A
5:20 pm54 °FPassing clouds.6 mph38%29.98 "HgN/A
4:50 pm54 °FPassing clouds.8 mph35%29.98 "HgN/A
4:20 pm54 °FPassing clouds.8 mph41%29.98 "HgN/A
3:50 pm55 °FPassing clouds.6 mph36%29.98 "HgN/A
3:20 pm52 °FScattered showers. Partly sunny.3 mph44%29.98 "HgN/A
2:50 pm52 °FScattered showers. Partly sunny.6 mph44%29.98 "HgN/A
2:20 pm52 °FScattered showers. Partly sunny.10 mph47%29.95 "HgN/A
1:50 pm54 °FScattered showers. Broken clouds.3 mph44%29.95 "HgN/A
1:20 pm50 °FSprinkles. Broken clouds.7 mph47%29.95 "HgN/A
12:50 pm52 °FScattered showers. Broken clouds.5 mph50%29.95 "HgN/A
12:26 pm52 °FScattered showers. Broken clouds.7 mph50%29.95 "HgN/A
12:20 pm54 °FBroken clouds.6 mph51%29.95 "HgN/A
11:50 am52 °FBroken clouds.5 mph50%29.95 "HgN/A
11:20 am50 °FSunny.3 mph54%29.95 "Hg10 mi
10:50 am48 °FSunny.2 mph58%29.95 "Hg10 mi
10:20 am46 °FSunny.5 mph66%29.95 "Hg10 mi
9:20 am45 °FSunny.2 mph76%29.95 "Hg10 mi
8:50 am43 °FSunny.1 mph81%29.95 "Hg10 mi
8:20 am39 °FClear.2 mph100%29.95 "Hg6 mi
7:50 am37 °FClear.1 mph100%29.95 "Hg4 mi
7:20 am36 °FClear.1 mph100%29.95 "Hg4 mi
6:50 am37 °FLight fog.1 mph100%29.95 "Hg4 mi
6:20 am37 °FFog.3 mph93%29.92 "Hg5 mi
5:50 am37 °FFog.1 mph100%29.92 "Hg5 mi
5:20 am39 °FClear.2 mph100%29.92 "Hg5 mi
4:50 am39 °FClear.2 mph100%29.92 "Hg10 mi
4:20 am39 °FClear.3 mph100%29.92 "Hg10 mi
Weather by CustomWeather, © 2017

See weather overviewHow to use our weather pages